This is the latest recevied weather packets stored in our database for station/object p43g-13. If no packets are shown the sender has not sent any weather packets the latest 10 day(s).
| Time | Temp. | Humidity | Pressure | Rain* | Wind** | Luminosity | Snow |
|---|---|---|---|---|---|---|---|
| 1788112555 | 31.67° C | 73% | 1011.1 hPa | 0 mm | - | 332 W/m² | - |
| 1788112255 | 32.22° C | 72% | 1011.1 hPa | 0 mm | - | 415 W/m² | - |
| 1788111960 | 32.22° C | 73% | 1011.2 hPa | 0 mm | - | 1053 W/m² | - |
| 1788111655 | 32.22° C | 71% | 1011.6 hPa | 0 mm | - | 1023 W/m² | - |
| 1788111355 | 32.78° C | 71% | 1011.6 hPa | 0 mm | - | 889 W/m² | - |
| 1788111054 | 32.22° C | 70% | 1011.6 hPa | 0 mm | - | 653 W/m² | - |
| 1788110755 | 32.22° C | 72% | 1011.5 hPa | 0 mm | - | 1040 W/m² | - |
| 1788110455 | 32.22° C | 69% | 1011.6 hPa | 0 mm | - | 1025 W/m² | - |
| 1788110155 | 32.78° C | 69% | 1011.7 hPa | 0 mm | - | 1000 W/m² | - |
| 1788109855 | 32.22° C | 69% | 1011.7 hPa | 0 mm | - | 975 W/m² | - |
| 1788109555 | 32.78° C | 69% | 1011.8 hPa | 0 mm | - | 235 W/m² | - |
| 1788109255 | 32.22° C | 70% | 1011.8 hPa | 0 mm | - | 283 W/m² | - |
| 1788108956 | 32.22° C | 69% | 1012.1 hPa | 0 mm | - | 966 W/m² | - |
| 1788108655 | 32.22° C | 70% | 1012.1 hPa | 0 mm | - | 1005 W/m² | - |
| 1788108355 | 32.78° C | 69% | 1012 hPa | 0 mm | - | 987 W/m² | - |
| 1788108055 | 32.78° C | 67% | 1011.9 hPa | 0 mm | - | 927 W/m² | - |
| 1788107755 | 32.22° C | 65% | 1012 hPa | 0 mm | - | 944 W/m² | - |
| 1788107454 | 32.22° C | 66% | 1012.1 hPa | 0 mm | - | 934 W/m² | - |
| 1788107155 | 32.22° C | 69% | 1012 hPa | 0 mm | - | 946 W/m² | - |
| 1788106855 | 32.22° C | 67% | 1012.1 hPa | 0 mm | - | 913 W/m² | - |
| 1788106556 | 31.67° C | 70% | 1012.1 hPa | 0 mm | - | 882 W/m² | - |
| 1788106256 | 32.22° C | 69% | 1012 hPa | 0 mm | - | 913 W/m² | - |
| 1788105955 | 32.22° C | 68% | 1012 hPa | 0 mm | - | 959 W/m² | - |
| 1788105655 | 32.78° C | 67% | 1012.1 hPa | 0 mm | - | 919 W/m² | - |
| 1788105355 | 32.78° C | 68% | 1011.9 hPa | 0 mm | - | 914 W/m² | - |
* Rain latest hour (hover to see other rain measurements)
** Current wind speed in m/s (hover to see current wind gust speed)